Regional Weather Roundup
Issued by NWS

Home | Current Version | Previous Version | Graphics & Text | Print | Product List | Glossary On
Versions: 1 2 3 4 5 6 7 8 9 10 11 12 13 14 15 16 17 18 19 20 21 22 23 24 25 26 27 28 29 30 31 32 33 34 35 36 37 38 39 40 41 42 43 44 45 46 47 48 49 50
000
ASUS43 KBIS 042302
RWRND

NORTH DAKOTA REGIONAL WEATHER ROUNDUP
NATIONAL WEATHER SERVICE BISMARCK ND
500 PM CST SUN DEC 04 2016

NOTE: "FAIR" INDICATES FEW OR NO CLOUDS BELOW 12,000 FEET WITH NO
SIGNIFICANT WEATHER AND/OR OBSTRUCTIONS TO VISIBILITY.


NDZ001>003-009>011-017-050000-
NORTHWEST NORTH DAKOTA

CITY           SKY/WX    TMP DP  RH WIND       PRES   REMARKS
WILLISTON      PTCLDY    30  21  69 S5        29.61F
MINOT          CLEAR     26  19  74 SW7       29.63S WCI  18
MINOT AFB      CLEAR     18  15  87 W5        29.63R WCI  11
$$

NDZ018>021-031>035-040>046-050000-
SOUTHWEST NORTH DAKOTA

CITY           SKY/WX    TMP DP  RH WIND       PRES   REMARKS
BISMARCK       CLEAR     27  20  75 SW6       29.69S
DICKINSON      CLEAR     24  18  77 SW9       29.61F WCI  14
GARRISON         N/A     24  19  81 W5        29.63F WCI  18
HETTINGER ARPT CLEAR     31  23  72 SE6       29.66F
$$

NDZ004>008-012>016-024-026-027-054-050000-
NORTHEAST NORTH DAKOTA

CITY           SKY/WX    TMP DP  RH WIND       PRES   REMARKS
GRAND FORKS    LGT SNOW  32  28  85 W8        29.64S FOG
GRND FRKS AFB  MOCLDY    32  27  81 NW13      29.64S
DEVILS LAKE    FLURRIES  26  24  92 W10       29.65S WCI  16
$$

NDZ022-023-025-028>030-036>039-047>053-050000-
SOUTHEAST NORTH DAKOTA

CITY           SKY/WX    TMP DP  RH WIND       PRES   REMARKS
FARGO          PTCLDY    33  27  78 W15       29.69R
JAMESTOWN      CLEAR     30  27  88 W8        29.67R
$$





USA.gov is the U.S. government's official web portal to all federal, state and local government web resources and services.